Regional Weather Roundup
Issued by NWS State College, PA

Home | Current Version | Previous Version | Graphics & Text | Print | Product List | Glossary On
Versions: 1 2 3 4 5 6 7 8 9 10 11 12 13 14 15 16 17 18 19 20 21 22 23 24 25 26 27 28 29 30 31 32 33 34 35 36 37 38 39 40 41 42 43 44 45 46 47 48 49 50
000
ASUS41 KCTP 231303
RWRCTP

REGIONAL WEATHER ROUNDUP
NATIONAL WEATHER SERVICE STATE COLLEGE PA
900 AM EDT THU OCT 23 2014

Note: "fair" indicates few or no clouds below 12,000 feet with no
significant weather and/or obstructions to visibility.

* = STATION THAT DOES NOT REPORT PRECIPITATION /E.G. RAIN...SNOW...ETC/
    THUNDER OR FOG.

PAZ002>004-007>009-013>016-020>023-029>032-231400-
WESTERN PENNSYLVANIA

CITY           SKY/WX    TMP DP  RH WIND       PRES   REMARKS
ERIE           SUNNY     52  43  71 NE7       30.17R
MEADVILLE      SUNNY     46  42  86 VRB5      30.14S
FRANKLIN*      SUNNY     45  39  81 NW5       30.14R
NEW CASTLE       N/A     47  43  86 NW5       30.16F
BEAVER COUNTY  PTSUNNY   46  43  87 NW7       30.14F
BUTLER*        MOSUNNY   46  39  76 NW7       30.15R
PITTSBURGH INT MOSUNNY   46  42  86 NW8       30.14R
PITTSBURGH     PTSUNNY   47  40  76 NW14      30.12R
INDIANA*       CLOUDY    46  41  81 NW7G15    30.12S
LATROBE        CLOUDY   N/A N/A N/A CALM      30.13R
WASHINGTON CO* CLOUDY    46  41  81 W3        30.16S
$$

PAZ004>006-010>012-017>019-024>028-033>037-041-042-045-046-049>053-231400-
CENTRAL PENNSYLVANIA

CITY           SKY/WX    TMP DP  RH WIND       PRES   REMARKS
BRADFORD       CLOUDY    42  37  82 N13       30.06F
DUBOIS         CLOUDY    44  39  82 NW12G20   30.05S
CLEARFIELD     CLOUDY    46  39  76 NW12      30.04S
JOHNSTOWN      CLOUDY    42  37  82 N9        30.06R
ALTOONA        PTSUNNY   49  41  74 NW10      30.02R
STATE COLLEGE  CLOUDY    48  39  71 N9G18     29.99R
WILLIAMSPORT   CLOUDY    52  41  66 NW12G21   29.92S
SELINSGROVE    CLOUDY    53  42  66 NW8G20    29.92R
FT INDIANTOWN  CLOUDY    52  45  77 NW8G18    29.86F
CAPITAL CITY   CLOUDY    55  42  61 NW14      29.88F
HARRISBURG     CLOUDY    54  42  64 N16G25    29.87F
YORK           CLOUDY    53  43  68 NW14G25   29.88S
$$

PAZ038>040-043-044-047-048-054-055-060>062-067>071-231400-
EASTERN PENNSYLVANIA

CITY           SKY/WX    TMP DP  RH WIND       PRES   REMARKS
SCRANTON       LGT RAIN  46  40  79 N8        29.87S
MOUNT POCONO   LGT RAIN  43  40  89 NW18G31   29.79S FOG
ALLENTOWN      CLOUDY    50  42  74 NW15      29.80S
QUAKERTOWN*    CLOUDY    48  45  87 N9G20     29.80R
READING        LGT RAIN  52  43  71 NW14      29.83R
LANCASTER      CLOUDY    52  42  69 NW17G24   29.85R
COATESVILLE    LGT RAIN  50  45  81 NW13G21   29.82S
POTTSTOWN      CLOUDY    50  43  77 NW15      29.81S
BLUE BELL      CLOUDY    50  46  87 NW9G16    29.77S
DOYLESTOWN     LGT RAIN  48  46  93 N10G20    29.76S
WILLOW GROVE   NOT AVBL
NORTH PHILA    LGT RAIN  51  44  77 NW13G22   29.78R
PHILADELPHIA   CLOUDY    51  46  83 NW18G25   29.78R
$$



USA.gov is the U.S. government's official web portal to all federal, state and local government web resources and services.